This is the latest recevied weather packets stored in our database for station/object KD0SBN. If no packets are shown the sender has not sent any weather packets the latest 10 day(s).
| Time | Temp. | Humidity | Pressure | Rain* | Wind** | Luminosity | Snow |
|---|---|---|---|---|---|---|---|
| 1778108159 | 6.67° C | 81% | 1019.6 hPa | 0 mm | - | - | - |
| 1778107855 | 6.11° C | 83% | 1019.2 hPa | 0 mm | - | - | - |
| 1778107553 | 5.56° C | 84% | 1019.4 hPa | 0 mm | - | - | - |
| 1778107249 | 5° C | 86% | 1019.3 hPa | 0 mm | - | - | - |
| 1778106945 | 5° C | 89% | 1019.4 hPa | 0 mm | - | - | - |
| 1778106642 | 4.44° C | 89% | 1019.4 hPa | 0 mm | - | - | - |
| 1778106339 | 4.44° C | 90% | 1019.2 hPa | 0 mm | - | - | - |
| 1778106035 | 4.44° C | 90% | 1019.4 hPa | 0 mm | - | - | - |
| 1778105733 | 4.44° C | 89% | 1019.4 hPa | 3.56 mm | - | - | - |
| 1778105430 | 3.89° C | 88% | 1019.3 hPa | 1.78 mm | - | - | - |
| 1778105126 | 3.89° C | 88% | 1019.4 hPa | 1.78 mm | - | - | - |
| 1778104822 | 3.89° C | 87% | 1019.2 hPa | 3.56 mm | - | - | - |
| 1778104519 | 4.44° C | 87% | 1019.4 hPa | 1.78 mm | - | - | - |
| 1778104214 | 5° C | 86% | 1019.6 hPa | 0 mm | - | - | - |
| 1778103912 | 5° C | 85% | 1019.4 hPa | 0 mm | - | - | - |
| 1778103609 | 5.56° C | 81% | 1019.3 hPa | 0 mm | - | - | - |
| 1778103307 | 5.56° C | 80% | 1019.4 hPa | 0 mm | - | - | - |
| 1778103004 | 5.56° C | 78% | 1019.3 hPa | 0 mm | - | - | - |
| 1778102700 | 5° C | 79% | 1019.4 hPa | 0 mm | - | - | - |
| 1778102395 | 5.56° C | 77% | 1019.3 hPa | 0 mm | - | - | - |
| 1778102091 | 5° C | 79% | 1019.4 hPa | 0 mm | - | - | - |
| 1778101788 | 5° C | 79% | 1019.6 hPa | 0 mm | - | - | - |
| 1778101484 | 5° C | 80% | 1019.4 hPa | 0 mm | - | - | - |
| 1778101182 | 4.44° C | 83% | 1019.1 hPa | 0 mm | - | - | - |
| 1778100878 | 4.44° C | 87% | 1019.3 hPa | 0 mm | - | - | - |
* Rain latest hour (hover to see other rain measurements)
** Current wind speed in m/s (hover to see current wind gust speed)